EA1AML Weather Reports


Display with metric or nautical units.
time (UTC)temp
F
wind
direction
speed
MPH
gust
MPH
rain 1hr
in
rain 24hr
in
rain mn
in
humidity
%
barometer
mb
20260508055005 47 167 2.0 5.0 0.00 0.03 0.00 96 1008.4
20260508053005 46 59 0.0 0.0 0.00 0.03 0.00 96 1008.1
20260508052005 46 59 0.0 0.0 0.00 0.03 0.00 96 1008.1
20260508051004 46 59 0.0 0.0 0.00 0.03 0.00 96 1008.0
20260508050005 46 59 0.0 0.0 0.00 0.03 0.00 96 1008.0
20260508045005 46 59 0.0 0.0 0.00 0.03 0.00 95 1008.2
20260508043004 47 59 0.0 0.0 0.00 0.03 0.00 95 1008.1
20260508042004 47 59 0.0 1.0 0.00 0.03 0.00 95 1008.1
20260508040004 47 59 1.0 3.0 0.00 0.03 0.00 95 1008.2
20260508035005 47 59 0.0 1.0 0.00 0.03 0.00 95 1008.3
20260508034006 48 59 0.0 1.0 0.00 0.03 0.00 95 1008.4
20260508033005 48 59 0.0 2.0 0.00 0.03 0.00 95 1008.5
20260508032004 48 59 0.0 2.0 0.00 0.03 0.00 95 1008.6
20260508031004 48 59 1.0 2.0 0.00 0.03 0.00 95 1008.5
20260508030004 49 59 0.0 0.0 0.00 0.03 0.00 95 1008.7
20260508025005 49 59 0.0 0.0 0.00 0.03 0.00 95 1008.7
20260508024004 49 59 1.0 3.0 0.00 0.03 0.00 95 1008.8
20260508023005 49 59 0.0 3.0 0.00 0.03 0.00 95 1009.0
20260508022004 49 98 2.0 3.0 0.00 0.03 0.00 96 1009.0
20260508021005 49 97 0.0 0.0 0.00 0.03 0.00 96 1009.2
20260508020005 49 97 0.0 1.0 0.00 0.03 0.00 96 1009.3
20260508015005 49 97 0.0 2.0 0.00 0.03 0.00 96 1009.4
20260508014004 49 97 1.0 7.0 0.00 0.03 0.00 96 1009.5
20260508011005 48 215 1.0 2.0 0.00 0.03 0.00 96 1010.4
20260508010004 48 221 2.0 10.0 0.00 0.03 0.00 96 1010.5
20260508004004 48 228 7.0 10.0 0.00 0.03 0.00 95 1010.6
20260508002005 49 171 0.0 0.0 0.00 0.03 0.00 95 1010.2
20260508001005 49 171 0.0 2.0 0.00 0.03 0.00 94 1010.3
20260508000005 49 171 0.0 1.0 0.00 0.03 0.00 94 1010.2
20260507235005 49 171 0.0 2.0 0.00 0.03 0.00 94 1010.3
20260507231004 50 184 0.0 2.0 0.00 0.03 0.00 93 1010.4
20260507230005 50 212 0.0 1.0 0.00 0.03 0.00 93 1010.5
20260507225004 50 212 0.0 3.0 0.00 0.03 0.00 92 1010.8
20260507224005 51 207 1.0 3.0 0.00 0.03 0.00 91 1010.8
20260507223005 51 51 1.0 3.0 0.00 0.03 0.00 90 1010.7
20260507222005 51 65 1.0 3.0 0.00 0.03 0.00 90 1010.8
20260507220005 51 198 0.0 1.0 0.01 0.03 0.00 91 1011.0
20260507215004 51 198 0.0 0.0 0.01 0.03 0.03 91 1010.9
20260507214005 51 198 0.0 2.0 0.01 0.03 0.03 91 1010.8
20260507213005 51 198 2.0 5.0 0.01 0.03 0.03 89 1011.0
20260507212004 52 58 4.0 7.0 0.01 0.03 0.03 88 1010.5
20260507211004 52 302 0.0 3.0 0.00 0.02 0.02 88 1010.8
20260507210005 52 238 0.0 0.0 0.00 0.02 0.02 87 1010.9
20260507205004 52 238 0.0 3.0 0.00 0.02 0.02 87 1010.8
20260507204005 52 219 2.0 3.0 0.00 0.02 0.02 85 1010.6
20260507203004 54 220 0.0 6.0 0.00 0.02 0.02 83 1010.4
20260507202005 55 245 2.0 3.0 0.00 0.02 0.02 78 1010.1
20260507201004 56 294 1.0 5.0 0.00 0.02 0.02 74 1010.0
20260507200004 55 55 1.0 3.0 0.00 0.02 0.02 73 1009.7
20260507195005 55 55 2.0 6.0 0.00 0.02 0.02 74 1009.4
20260507194004 56 62 3.0 12.0 0.00 0.02 0.02 73 1009.4
20260507193006 56 61 2.0 5.0 0.00 0.02 0.02 73 1009.3
20260507192005 56 7 2.0 10.0 0.00 0.02 0.02 73 1009.1
20260507191005 56 39 6.0 10.0 0.00 0.02 0.02 72 1009.0
20260507190006 56 24 3.0 7.0 0.00 0.02 0.02 72 1008.9
20260507185004 56 28 2.0 14.0 0.00 0.02 0.02 72 1008.9
20260507184004 57 347 5.0 15.0 0.00 0.02 0.02 72 1008.7
20260507182005 57 322 10.0 22.0 0.00 0.02 0.02 72 1008.4
20260507181005 58 328 3.0 18.0 0.00 0.02 0.02 71 1008.3
20260507174004 60 309 4.0 14.0 0.00 0.02 0.02 68 1007.9
20260507173005 60 301 9.0 13.0 0.00 0.02 0.02 66 1007.8
20260507172005 61 269 1.0 3.0 0.00 0.02 0.02 64 1007.7
20260507171005 61 22 1.0 5.0 0.00 0.02 0.02 59 1007.7
20260507170005 61 344 2.0 6.0 0.00 0.02 0.02 60 1007.6
20260507164004 62 94 1.0 8.0 0.00 0.02 0.02 60 1007.7
20260507163004 62 73 2.0 6.0 0.00 0.02 0.02 62 1007.6
20260507162005 62 60 3.0 6.0 0.00 0.02 0.02 61 1007.8
20260507161004 61 99 4.0 9.0 0.00 0.02 0.02 62 1007.7
20260507160004 61 73 6.0 12.0 0.00 0.02 0.02 64 1007.8
20260507155005 61 80 3.0 7.0 0.00 0.02 0.02 64 1007.9
20260507154005 60 152 2.0 5.0 0.00 0.02 0.02 66 1008.0
20260507153004 60 147 6.0 18.0 0.00 0.02 0.02 69 1008.2
20260507152004 58 129 10.0 22.0 0.00 0.02 0.02 71 1008.4
20260507151004 59 143 9.0 20.0 0.00 0.02 0.02 70 1008.8
20260507145004 59 173 11.0 17.0 0.00 0.02 0.02 68 1008.8
20260507144005 61 182 10.0 20.0 0.02 0.02 0.02 70 1008.7
20260507142004 58 96 7.0 15.0 0.02 0.02 0.02 73 1008.2
20260507140005 56 122 10.0 18.0 0.02 0.02 0.02 79 1008.3
20260507135005 55 111 11.0 26.0 0.02 0.02 0.02 80 1008.4
20260507134004 57 133 13.0 24.0 0.00 0.00 0.00 74 1008.5
20260507133005 60 152 12.0 20.0 0.00 0.00 0.00 69 1008.3
20260507132004 61 133 5.0 9.0 0.00 0.00 0.00 63 1008.3
20260507131004 61 128 3.0 10.0 0.00 0.00 0.00 64 1008.3
20260507130005 61 150 11.0 16.0 0.00 0.00 0.00 66 1008.4
20260507125004 63 175 6.0 12.0 0.00 0.00 0.00 57 1008.4
20260507124004 63 220 5.0 8.0 0.00 0.00 0.00 58 1008.5
20260507123006 63 163 3.0 14.0 0.00 0.00 0.00 58 1008.6
20260507122005 63 158 6.0 14.0 0.00 0.00 0.00 59 1008.7
20260507121005 63 197 7.0 14.0 0.00 0.00 0.00 59 1008.9
20260507120005 63 263 5.0 9.0 0.00 0.00 0.00 57 1009.1
20260507115005 63 294 1.0 9.0 0.00 0.00 0.00 59 1009.1
20260507114004 62 262 5.0 12.0 0.00 0.00 0.00 58 1009.3
20260507113005 62 290 6.0 10.0 0.00 0.00 0.00 58 1009.3
20260507112004 62 247 5.0 12.0 0.00 0.00 0.00 60 1009.5
20260507111004 62 290 5.0 8.0 0.00 0.00 0.00 58 1009.4
20260507105005 63 185 4.0 10.0 0.00 0.00 0.00 61 1009.6
20260507104004 62 259 2.0 12.0 0.00 0.00 0.00 60 1009.7
20260507103004 61 148 1.0 10.0 0.00 0.00 0.00 62 1009.9
20260507102006 61 273 1.0 3.0 0.00 0.00 0.00 64 1010.0
20260507100005 60 162 2.0 10.0 0.00 0.00 0.00 68 1010.2
20260507094005 58 351 1.0 5.0 0.00 0.00 0.00 71 1010.3
20260507093005 57 10 2.0 3.0 0.00 0.00 0.00 72 1010.6
20260507092004 56 303 2.0 6.0 0.00 0.00 0.00 74 1010.7
20260507090006 55 237 2.0 7.0 0.00 0.00 0.00 76 1010.7
20260507085005 56 264 3.0 7.0 0.00 0.00 0.00 75 1010.8
20260507084005 55 208 2.0 6.0 0.00 0.00 0.00 76 1010.9
20260507083005 55 261 1.0 3.0 0.00 0.00 0.00 76 1010.9
20260507082004 55 303 1.0 3.0 0.00 0.00 0.00 75 1010.9
20260507080005 54 197 1.0 2.0 0.00 0.00 0.00 79 1011.0
20260507075005 52 196 0.0 3.0 0.00 0.00 0.00 86 1011.1
20260507074004 51 196 2.0 3.0 0.00 0.00 0.00 88 1011.3
20260507073004 50 108 1.0 2.0 0.00 0.00 0.00 90 1011.3
20260507072005 49 107 0.0 1.0 0.00 0.00 0.00 90 1011.4
20260507065004 47 107 0.0 1.0 0.00 0.00 0.00 95 1011.4
20260507064004 45 108 0.0 0.0 0.00 0.00 0.00 94 1011.4
20260507063005 45 108 0.0 2.0 0.00 0.00 0.00 93 1011.5
20260507062005 46 108 1.0 3.0 0.00 0.00 0.00 92 1011.4